Weather in Nizhny Shibryay

Russia / Tambov Oblast     52°01′56″N   42°19′05″E
temp.,
°C
wind,
m/s
gust,
m/s
humid.,
%
clouds,
%
prec.,
mm/h
press.,
hPa
HPBL,
m
3 march, wed
wed300:000nw51096100 0.1 1008511
03:00−3nw499594 0.1 1009195
06:00−5nw5119550 0.0 1010302
09:00−2nnw699174 0.1 1012766
12:00−2nnw698379 0.1 1013913
15:00−3nw6108669 0.1 1015696
18:00−5nw5128746 0.0 1016346
21:00−6w5119151 0.0 1017236
4 march, thu
thu400:00−5wsw512934 0.0 1015297
03:00−2wsw6129051 0.1 1014534
06:00−2w71392100 0.1 1012812
09:00−1wsw81591100 0.1 1011523
12:000wsw9159093 0.0 1009658
15:00+1wsw8168683 0.0 1007769
18:00+1wsw71780100 0.0 1006615
21:00+1wsw71783100 0.0 1005655
5 march, fri
fri500:00+1sw71593100 0.0 1003544
03:00+2wsw71598100 0.2 1002553
06:00+1wsw71397100 0.3 1001546
09:00+1wsw61298100 0.4 1003611
12:00+1w71210097 0.1 1005691
15:000nw598999 0.4 1008616
18:00−2nnw2593100 0.0 1009182
21:00−3nne3694100 0.2 1011260
6 march, sat
sat600:00−4nne3694100 0.2 1011338
03:00−5nne4691100 0.2 1012281
06:00−7n369262 0.0 1013159
09:00−7nnw349077 0.0 1014238
12:00−4nw468556 0.0 1015563
15:00−4nw467830 0.0 1015780
18:00−7wnw36880 0.0 1015131
21:00−8nw23880 0.0 101768
7 march, sun
sun700:00−9nw22880 0.0 101723
03:00−9w128948 0.0 101723
06:00−9sw359522 0.0 1017118
09:00−7sw6109233 0.0 1015568
12:00−4sw81374100 0.0 10131060
15:00−3sw91670100 0.0 10101189
18:00−3sw91771100 0.0 10071037
21:00−3sw91873100 0.0 1005949